| time (UTC) | temp C | wind direction | speed KPH | gust KPH | rain 1hr cm | rain 24hr cm | rain mn cm | humidity % | barometer mb |
| 20260902204733 | 37 | 90 | 0.0 | 11.3 | 0.00 | 0.00 | 0.00 | 30 | 1010.8 |
| 20260902204233 | 37 | 338 | 3.2 | 12.9 | 0.00 | 0.00 | 0.00 | 30 | 1011.1 |
| 20260902203733 | 37 | 180 | 1.6 | 12.9 | 0.00 | 0.00 | 0.00 | 30 | 1011.1 |
| 20260902203231 | 37 | 225 | 3.2 | 11.3 | 0.00 | 0.00 | 0.00 | 30 | 1011.5 |
| 20260902202731 | 37 | 158 | 1.6 | 16.1 | 0.00 | 0.00 | 0.00 | 32 | 1011.1 |
| 20260902202231 | 37 | 203 | 3.2 | 17.7 | 0.00 | 0.00 | 0.00 | 31 | 1011.1 |
| 20260902201731 | 37 | 158 | 3.2 | 17.7 | 0.00 | 0.00 | 0.00 | 31 | 1011.5 |
| 20260902201503 | 37 | 203 | 1.6 | 8.0 | 0.00 | 0.00 | 0.00 | 31 | 1011.5 |
| 20260902200732 | 37 | 158 | 1.6 | 11.3 | 0.00 | 0.00 | 0.00 | 31 | 1011.5 |
| 20260902200503 | 37 | 293 | 1.6 | 14.5 | 0.00 | 0.00 | 0.00 | 30 | 1011.8 |
| 20260902195733 | 37 | 180 | 3.2 | 14.5 | 0.00 | 0.00 | 0.00 | 30 | 1011.8 |
| 20260902195233 | 37 | 270 | 3.2 | 12.9 | 0.00 | 0.00 | 0.00 | 31 | 1012.1 |
| 20260902194736 | 37 | 180 | 1.6 | 11.3 | 0.00 | 0.00 | 0.00 | 32 | 1011.8 |
| 20260902194231 | 36 | 180 | 3.2 | 14.5 | 0.00 | 0.00 | 0.00 | 30 | 1011.8 |
| 20260902193730 | 36 | 180 | 1.6 | 14.5 | 0.00 | 0.00 | 0.00 | 31 | 1012.1 |
| 20260902193230 | 36 | 180 | 3.2 | 12.9 | 0.00 | 0.00 | 0.00 | 31 | 1012.1 |
| 20260902192732 | 36 | 248 | 3.2 | 12.9 | 0.00 | 0.00 | 0.00 | 30 | 1012.1 |
| 20260902192232 | 36 | 180 | 1.6 | 11.3 | 0.00 | 0.00 | 0.00 | 31 | 1012.1 |
| 20260902191731 | 36 | 180 | 1.6 | 11.3 | 0.00 | 0.00 | 0.00 | 32 | 1012.1 |
| 20260902191218 | 36 | 203 | 3.2 | 12.9 | 0.00 | 0.00 | 0.00 | 31 | 1012.1 |
| 20260902190944 | 36 | 225 | 3.2 | 12.9 | 0.00 | 0.00 | 0.00 | 31 | 1012.5 |
| 20260902190931 | 36 | 180 | 3.2 | 12.9 | 0.00 | 0.00 | 0.00 | 31 | 1012.5 |
| 20260902185713 | 36 | 248 | 3.2 | 14.5 | 0.00 | 0.00 | 0.00 | 31 | 1012.5 |
| 20260902185212 | 36 | 225 | 3.2 | 14.5 | 0.00 | 0.00 | 0.00 | 32 | 1012.5 |
| 20260902184711 | 36 | 180 | 1.6 | 14.5 | 0.00 | 0.00 | 0.00 | 34 | 1012.5 |
| 20260902184213 | 36 | 203 | 3.2 | 14.5 | 0.00 | 0.00 | 0.00 | 31 | 1012.8 |
| 20260902183713 | 36 | 248 | 3.2 | 16.1 | 0.00 | 0.00 | 0.00 | 32 | 1012.8 |
| 20260902183212 | 36 | 203 | 3.2 | 16.1 | 0.00 | 0.00 | 0.00 | 32 | 1012.8 |
| 20260902182944 | 36 | 203 | 3.2 | 9.7 | 0.00 | 0.00 | 0.00 | 34 | 1012.8 |
| 20260902182212 | 36 | 23 | 1.6 | 14.5 | 0.00 | 0.00 | 0.00 | 35 | 1013.3 |
| 20260902181712 | 35 | 270 | 3.2 | 14.5 | 0.00 | 0.00 | 0.00 | 35 | 1013.3 |
| 20260902181212 | 35 | 135 | 1.6 | 9.7 | 0.00 | 0.00 | 0.00 | 37 | 1013.3 |
| 20260902180711 | 35 | 180 | 1.6 | 9.7 | 0.00 | 0.00 | 0.00 | 37 | 1013.6 |
| 20260902180211 | 35 | 158 | 3.2 | 16.1 | 0.00 | 0.00 | 0.00 | 37 | 1013.3 |
| 20260902175712 | 35 | 180 | 3.2 | 16.1 | 0.00 | 0.00 | 0.00 | 37 | 1013.3 |
| 20260902175442 | 35 | 180 | 3.2 | 16.1 | 0.00 | 0.00 | 0.00 | 37 | 1013.3 |
| 20260902174712 | 35 | 203 | 1.6 | 16.1 | 0.00 | 0.00 | 0.00 | 37 | 1013.3 |
| 20260902174211 | 35 | 203 | 3.2 | 11.3 | 0.00 | 0.00 | 0.00 | 37 | 1013.3 |
| 20260902173712 | 35 | 203 | 1.6 | 14.5 | 0.00 | 0.00 | 0.00 | 40 | 1013.3 |
| 20260902173210 | 35 | 158 | 3.2 | 14.5 | 0.00 | 0.00 | 0.00 | 40 | 1013.3 |
| 20260902172710 | 35 | 203 | 1.6 | 11.3 | 0.00 | 0.00 | 0.00 | 37 | 1013.3 |
| 20260902172211 | 35 | 203 | 1.6 | 11.3 | 0.00 | 0.00 | 0.00 | 39 | 1013.3 |
| 20260902171710 | 35 | 113 | 3.2 | 9.7 | 0.00 | 0.00 | 0.00 | 39 | 1013.3 |
| 20260902171211 | 35 | 180 | 1.6 | 9.7 | 0.00 | 0.00 | 0.00 | 40 | 1013.6 |
| 20260902170944 | 35 | 180 | 1.6 | 9.7 | 0.00 | 0.00 | 0.00 | 40 | 1013.3 |
| 20260902170211 | 35 | 203 | 1.6 | 9.7 | 0.00 | 0.00 | 0.00 | 37 | 1013.6 |
| 20260902165941 | 35 | 180 | 1.6 | 11.3 | 0.00 | 0.00 | 0.00 | 40 | 1013.6 |
| 20260902165211 | 35 | 158 | 1.6 | 11.3 | 0.00 | 0.00 | 0.00 | 40 | 1013.9 |
| 20260902164710 | 35 | 180 | 1.6 | 11.3 | 0.00 | 0.00 | 0.00 | 41 | 1013.3 |
| 20260902164210 | 35 | 180 | 1.6 | 8.0 | 0.00 | 0.00 | 0.00 | 43 | 1013.6 |
| 20260902163711 | 35 | 203 | 0.0 | 8.0 | 0.00 | 0.00 | 0.00 | 45 | 1013.6 |
| 20260902163210 | 34 | 180 | 1.6 | 8.0 | 0.00 | 0.00 | 0.00 | 45 | 1013.6 |
| 20260902162710 | 34 | 158 | 1.6 | 9.7 | 0.00 | 0.00 | 0.00 | 45 | 1013.6 |
| 20260902162211 | 33 | 180 | 1.6 | 9.7 | 0.00 | 0.00 | 0.00 | 46 | 1013.6 |
| 20260902161710 | 33 | 203 | 1.6 | 9.7 | 0.00 | 0.00 | 0.00 | 49 | 1013.6 |
| 20260902161442 | 33 | 203 | 1.6 | 11.3 | 0.00 | 0.00 | 0.00 | 50 | 1013.6 |
| 20260902160710 | 32 | 158 | 1.6 | 11.3 | 0.00 | 0.00 | 0.00 | 50 | 1013.6 |
| 20260902160210 | 32 | 135 | 1.6 | 9.7 | 0.00 | 0.00 | 0.00 | 50 | 1013.6 |
| 20260902155710 | 32 | 158 | 1.6 | 9.7 | 0.00 | 0.00 | 0.00 | 53 | 1013.3 |
| 20260902155210 | 32 | 203 | 1.6 | 8.0 | 0.00 | 0.00 | 0.00 | 53 | 1013.3 |
| 20260902154942 | 31 | 203 | 1.6 | 6.4 | 0.00 | 0.00 | 0.00 | 54 | 1013.6 |
| 20260902154210 | 31 | 158 | 0.0 | 9.7 | 0.00 | 0.00 | 0.00 | 54 | 1013.6 |
| 20260902153942 | 31 | 203 | 1.6 | 9.7 | 0.00 | 0.00 | 0.00 | 55 | 1013.3 |
| 20260902153210 | 31 | 68 | 1.6 | 6.4 | 0.00 | 0.00 | 0.00 | 55 | 1013.3 |
| 20260902152941 | 31 | 225 | 1.6 | 9.7 | 0.00 | 0.00 | 0.00 | 55 | 1013.3 |
| 20260902152210 | 31 | 180 | 1.6 | 9.7 | 0.00 | 0.00 | 0.00 | 55 | 1013.3 |
| 20260902151709 | 31 | 225 | 1.6 | 9.7 | 0.00 | 0.00 | 0.00 | 55 | 1013.3 |
| 20260902151440 | 30 | 158 | 1.6 | 8.0 | 0.00 | 0.00 | 0.00 | 56 | 1012.8 |
| 20260902150709 | 30 | 180 | 0.0 | 6.4 | 0.00 | 0.00 | 0.00 | 56 | 1013.3 |
| 20260902150440 | 30 | 225 | 0.0 | 6.4 | 0.00 | 0.00 | 0.00 | 59 | 1013.3 |
| 20260902145709 | 30 | 270 | 0.0 | 3.2 | 0.00 | 0.00 | 0.00 | 59 | 1013.3 |
| 20260902145210 | 29 | 180 | 0.0 | 3.2 | 0.00 | 0.00 | 0.00 | 60 | 1013.3 |
| 20260902144711 | 29 | 180 | 0.0 | 3.2 | 0.00 | 0.00 | 0.00 | 60 | 1013.3 |
| 20260902144210 | 29 | 225 | 0.0 | 1.6 | 0.00 | 0.00 | 0.00 | 61 | 1013.3 |
| 20260902143710 | 28 | 158 | 0.0 | 1.6 | 0.00 | 0.00 | 0.00 | 61 | 1012.8 |
| 20260902143201 | 28 | 180 | 0.0 | 4.8 | 0.00 | 0.00 | 0.00 | 61 | 1013.3 |
| 20260902142651 | 28 | 135 | 0.0 | 6.4 | 0.00 | 0.00 | 0.00 | 61 | 1012.8 |
| 20260902142426 | 28 | 180 | 0.0 | 6.4 | 0.00 | 0.00 | 0.00 | 61 | 1012.8 |
| 20260902142151 | 28 | 158 | 0.0 | 6.4 | 0.00 | 0.00 | 0.00 | 61 | 1012.8 |
| 20260902141151 | 28 | 45 | 0.0 | 3.2 | 0.00 | 0.00 | 0.00 | 61 | 1012.8 |
| 20260902140651 | 28 | 203 | 0.0 | 1.6 | 0.00 | 0.00 | 0.00 | 63 | 1012.5 |
| 20260902140151 | 28 | 248 | 0.0 | 3.2 | 0.00 | 0.00 | 0.00 | 63 | 1012.5 |
| 20260902135928 | 28 | 338 | 0.0 | 4.8 | 0.00 | 0.00 | 0.00 | 63 | 1012.5 |
| 20260902135652 | 28 | 135 | 0.0 | 3.2 | 0.00 | 0.00 | 0.00 | 61 | 1012.5 |
| 20260902135151 | 28 | 158 | 0.0 | 1.6 | 0.00 | 0.00 | 0.00 | 61 | 1012.5 |
| 20260902134150 | 28 | 203 | 0.0 | 4.8 | 0.00 | 0.00 | 0.00 | 61 | 1012.5 |
| 20260902133650 | 28 | 270 | 0.0 | 0.0 | 0.00 | 0.00 | 0.00 | 61 | 1012.1 |
| 20260902133149 | 28 | 293 | 0.0 | 0.0 | 0.00 | 0.00 | 0.00 | 61 | 1012.5 |
| 20260902132650 | 28 | 158 | 0.0 | 0.0 | 0.00 | 0.00 | 0.00 | 61 | 1012.5 |
| 20260902132151 | 28 | 293 | 0.0 | 0.0 | 0.00 | 0.00 | 0.00 | 61 | 1012.1 |
| 20260902131651 | 28 | 0 | 0.0 | 0.0 | 0.00 | 0.00 | 0.00 | 61 | 1012.1 |
| 20260902131151 | 28 | 0 | 0.0 | 1.6 | 0.00 | 0.00 | 0.00 | 61 | 1011.8 |
| 20260902130651 | 28 | 203 | 0.0 | 1.6 | 0.00 | 0.00 | 0.00 | 61 | 1012.1 |
| 20260902130156 | 28 | 338 | 0.0 | 1.6 | 0.00 | 0.00 | 0.00 | 61 | 1011.8 |
| 20260902125650 | 28 | 315 | 0.0 | 1.6 | 0.00 | 0.00 | 0.00 | 61 | 1012.1 |
| 20260902125150 | 28 | 225 | 0.0 | 0.0 | 0.00 | 0.00 | 0.00 | 61 | 1011.8 |
| 20260902124921 | 28 | 225 | 0.0 | 0.0 | 0.00 | 0.00 | 0.00 | 61 | 1011.8 |
| 20260902124150 | 28 | 315 | 0.0 | 1.6 | 0.00 | 0.00 | 0.00 | 61 | 1011.8 |
| 20260902123651 | 28 | 225 | 0.0 | 1.6 | 0.00 | 0.00 | 0.00 | 61 | 1011.8 |
| 20260902123152 | 28 | 270 | 0.0 | 1.6 | 0.00 | 0.00 | 0.00 | 61 | 1011.8 |
| 20260902122652 | 28 | 180 | 0.0 | 1.6 | 0.00 | 0.00 | 0.00 | 61 | 1011.5 |
| 20260902122151 | 28 | 45 | 0.0 | 1.6 | 0.00 | 0.00 | 0.00 | 61 | 1011.5 |
| 20260902121651 | 28 | 315 | 0.0 | 1.6 | 0.00 | 0.00 | 0.00 | 61 | 1011.8 |
| 20260902121154 | 28 | 270 | 0.0 | 1.6 | 0.00 | 0.00 | 0.00 | 60 | 1011.5 |
| 20260902121150 | 28 | 225 | 0.0 | 1.6 | 0.00 | 0.00 | 0.00 | 60 | 1011.5 |
| 20260902120907 | 28 | 248 | 0.0 | 0.0 | 0.00 | 0.00 | 0.00 | 60 | 1011.5 |
| 20260902115922 | 28 | 315 | 0.0 | 0.0 | 0.00 | 0.00 | 0.00 | 60 | 1011.8 |
| 20260902115151 | 28 | 225 | 0.0 | 1.6 | 0.00 | 0.00 | 0.00 | 60 | 1011.5 |
| 20260902114651 | 28 | 0 | 0.0 | 3.2 | 0.00 | 0.00 | 0.00 | 60 | 1011.5 |
| 20260902114151 | 28 | 90 | 0.0 | 3.2 | 0.00 | 0.00 | 0.00 | 61 | 1011.8 |
| 20260902113651 | 28 | 23 | 0.0 | 1.6 | 0.00 | 0.00 | 0.00 | 60 | 1011.5 |
| 20260902113152 | 28 | 270 | 0.0 | 1.6 | 0.00 | 0.00 | 0.00 | 60 | 1011.5 |
| 20260902112650 | 28 | 0 | 0.0 | 0.0 | 0.00 | 0.00 | 0.00 | 59 | 1011.5 |
| 20260902112151 | 28 | 225 | 0.0 | 0.0 | 0.00 | 0.00 | 0.00 | 59 | 1011.5 |
| 20260902111650 | 28 | 315 | 0.0 | 0.0 | 0.00 | 0.00 | 0.00 | 59 | 1011.5 |
| 20260902111150 | 28 | 248 | 0.0 | 0.0 | 0.00 | 0.00 | 0.00 | 59 | 1011.5 |
| 20260902110650 | 28 | 248 | 0.0 | 0.0 | 0.00 | 0.00 | 0.00 | 59 | 1011.5 |
| 20260902110151 | 28 | 338 | 0.0 | 1.6 | 0.00 | 0.00 | 0.00 | 59 | 1011.5 |
| 20260902105651 | 28 | 293 | 0.0 | 1.6 | 0.00 | 0.00 | 0.00 | 58 | 1011.5 |
| 20260902105151 | 29 | 270 | 0.0 | 1.6 | 0.00 | 0.00 | 0.00 | 59 | 1011.1 |
| 20260902104922 | 29 | 248 | 0.0 | 1.6 | 0.00 | 0.00 | 0.00 | 59 | 1011.1 |
| 20260902104151 | 29 | 0 | 0.0 | 1.6 | 0.00 | 0.00 | 0.00 | 58 | 1011.5 |
| 20260902103650 | 29 | 23 | 0.0 | 1.6 | 0.00 | 0.00 | 0.00 | 59 | 1011.5 |
| 20260902103150 | 29 | 135 | 0.0 | 0.0 | 0.00 | 0.00 | 0.00 | 60 | 1011.5 |
| 20260902102650 | 29 | 158 | 0.0 | 0.0 | 0.00 | 0.00 | 0.00 | 59 | 1011.5 |
| 20260902102150 | 29 | 158 | 0.0 | 0.0 | 0.00 | 0.00 | 0.00 | 58 | 1011.5 |
| 20260902101923 | 29 | 158 | 0.0 | 0.0 | 0.00 | 0.00 | 0.00 | 56 | 1011.1 |
| 20260902101152 | 29 | 158 | 0.0 | 0.0 | 0.00 | 0.00 | 0.00 | 55 | 1011.5 |
| 20260902100651 | 29 | 113 | 0.0 | 0.0 | 0.00 | 0.00 | 0.00 | 55 | 1011.5 |
| 20260902100151 | 29 | 113 | 0.0 | 0.0 | 0.00 | 0.00 | 0.00 | 54 | 1011.5 |
| 20260902095651 | 29 | 113 | 0.0 | 0.0 | 0.00 | 0.00 | 0.00 | 55 | 1011.5 |
| 20260902095154 | 30 | 113 | 0.0 | 0.0 | 0.00 | 0.00 | 0.00 | 54 | 1011.5 |
| 20260902095150 | 29 | 113 | 0.0 | 0.0 | 0.00 | 0.00 | 0.00 | 55 | 1011.1 |
| 20260902094150 | 30 | 113 | 0.0 | 0.0 | 0.00 | 0.00 | 0.00 | 53 | 1011.5 |
| 20260902093650 | 30 | 113 | 0.0 | 0.0 | 0.00 | 0.00 | 0.00 | 54 | 1011.1 |
| 20260902093151 | 30 | 113 | 0.0 | 0.0 | 0.00 | 0.00 | 0.00 | 55 | 1011.1 |
| 20260902092151 | 30 | 113 | 0.0 | 0.0 | 0.00 | 0.00 | 0.00 | 54 | 1011.5 |
| 20260902091921 | 30 | 135 | 0.0 | 0.0 | 0.00 | 0.00 | 0.00 | 55 | 1011.1 |
| 20260902091151 | 30 | 135 | 0.0 | 0.0 | 0.00 | 0.00 | 0.00 | 53 | 1011.5 |
| 20260902090921 | 30 | 135 | 0.0 | 0.0 | 0.00 | 0.00 | 0.00 | 54 | 1011.1 |
| 20260902090149 | 30 | 135 | 0.0 | 0.0 | 0.00 | 0.00 | 0.00 | 51 | 1011.1 |
| 20260902085650 | 30 | 135 | 0.0 | 0.0 | 0.00 | 0.00 | 0.00 | 50 | 1011.1 |
| 20260902085150 | 31 | 135 | 0.0 | 0.0 | 0.00 | 0.00 | 0.00 | 50 | 1011.5 |
| 20260902084650 | 31 | 135 | 0.0 | 3.2 | 0.00 | 0.00 | 0.00 | 50 | 1011.5 |
| 20260902084421 | 31 | 135 | 0.0 | 3.2 | 0.00 | 0.00 | 0.00 | 49 | 1011.1 |
| 20260902083651 | 31 | 158 | 0.0 | 3.2 | 0.00 | 0.00 | 0.00 | 48 | 1011.1 |
| 20260902083421 | 31 | 158 | 0.0 | 6.4 | 0.00 | 0.00 | 0.00 | 48 | 1011.1 |
| 20260902082651 | 31 | 180 | 1.6 | 6.4 | 0.00 | 0.00 | 0.00 | 46 | 1011.5 |
| 20260902082156 | 31 | 180 | 1.6 | 6.4 | 0.00 | 0.00 | 0.00 | 46 | 1011.1 |
| 20260902082151 | 31 | 180 | 0.0 | 6.4 | 0.00 | 0.00 | 0.00 | 46 | 1011.5 |
| 20260902081150 | 31 | 158 | 1.6 | 4.8 | 0.00 | 0.00 | 0.00 | 46 | 1011.5 |
| 20260902080650 | 31 | 158 | 1.6 | 4.8 | 0.00 | 0.00 | 0.00 | 48 | 1011.5 |
| 20260902080149 | 31 | 180 | 0.0 | 6.4 | 0.00 | 0.00 | 0.00 | 49 | 1011.5 |
| 20260902075651 | 31 | 180 | 1.6 | 6.4 | 0.00 | 0.00 | 0.00 | 49 | 1011.5 |
| 20260902075151 | 31 | 180 | 1.6 | 6.4 | 0.00 | 0.00 | 0.00 | 49 | 1011.5 |
| 20260902074651 | 31 | 180 | 1.6 | 6.4 | 0.00 | 0.00 | 0.00 | 50 | 1011.5 |
| 20260902074155 | 31 | 158 | 0.0 | 4.8 | 0.00 | 0.00 | 0.00 | 50 | 1011.5 |
| 20260902074151 | 31 | 158 | 1.6 | 4.8 | 0.00 | 0.00 | 0.00 | 50 | 1011.1 |
| 20260902073149 | 31 | 135 | 0.0 | 3.2 | 0.00 | 0.00 | 0.00 | 50 | 1011.1 |
| 20260902072649 | 31 | 180 | 0.0 | 1.6 | 0.00 | 0.00 | 0.00 | 50 | 1011.1 |
| 20260902072150 | 31 | 338 | 0.0 | 4.8 | 0.00 | 0.00 | 0.00 | 50 | 1011.1 |
| 20260902071920 | 31 | 180 | 1.6 | 4.8 | 0.00 | 0.00 | 0.00 | 50 | 1011.1 |
| 20260902071150 | 31 | 158 | 0.0 | 3.2 | 0.00 | 0.00 | 0.00 | 50 | 1011.1 |
| 20260902070922 | 31 | 158 | 0.0 | 4.8 | 0.00 | 0.00 | 0.00 | 50 | 1010.8 |
| 20260902070150 | 31 | 135 | 0.0 | 4.8 | 0.00 | 0.00 | 0.00 | 51 | 1010.8 |
| 20260902065651 | 31 | 158 | 0.0 | 0.0 | 0.00 | 0.00 | 0.00 | 51 | 1011.1 |
| 20260902065150 | 31 | 158 | 0.0 | 0.0 | 0.00 | 0.00 | 0.00 | 53 | 1011.1 |
| 20260902064650 | 31 | 135 | 0.0 | 0.0 | 0.00 | 0.00 | 0.00 | 51 | 1011.1 |
| 20260902064149 | 31 | 135 | 0.0 | 0.0 | 0.00 | 0.00 | 0.00 | 51 | 1011.1 |
| 20260902063649 | 31 | 135 | 0.0 | 0.0 | 0.00 | 0.00 | 0.00 | 50 | 1010.8 |
| 20260902063150 | 31 | 135 | 0.0 | 0.0 | 0.00 | 0.00 | 0.00 | 50 | 1010.8 |
| 20260902062650 | 31 | 135 | 0.0 | 0.0 | 0.00 | 0.00 | 0.00 | 49 | 1010.8 |
| 20260902062151 | 31 | 135 | 0.0 | 0.0 | 0.00 | 0.00 | 0.00 | 50 | 1010.8 |
| 20260902061650 | 31 | 135 | 0.0 | 0.0 | 0.00 | 0.00 | 0.00 | 50 | 1011.1 |
| 20260902061422 | 31 | 158 | 0.0 | 0.0 | 0.00 | 0.00 | 0.00 | 49 | 1010.8 |
| 20260902060652 | 31 | 180 | 0.0 | 0.0 | 0.00 | 0.00 | 0.00 | 50 | 1011.1 |
| 20260902060421 | 31 | 203 | 0.0 | 0.0 | 0.00 | 0.00 | 0.00 | 50 | 1011.1 |
| 20260902055650 | 31 | 203 | 0.0 | 1.6 | 0.00 | 0.00 | 0.00 | 50 | 1011.1 |
| 20260902055150 | 31 | 203 | 0.0 | 3.2 | 0.00 | 0.00 | 0.00 | 49 | 1011.1 |
| 20260902054649 | 31 | 180 | 0.0 | 6.4 | 0.00 | 0.00 | 0.00 | 48 | 1011.1 |
| 20260902054150 | 31 | 180 | 1.6 | 6.4 | 0.00 | 0.00 | 0.00 | 46 | 1011.1 |
| 20260902053651 | 31 | 180 | 0.0 | 6.4 | 0.00 | 0.00 | 0.00 | 46 | 1011.1 |
| 20260902053421 | 31 | 113 | 1.6 | 6.4 | 0.00 | 0.00 | 0.00 | 46 | 1011.1 |
| 20260902053407 | 31 | 158 | 0.0 | 4.8 | 0.00 | 0.00 | 0.00 | 46 | 1011.1 |
| 20260902052151 | 31 | 158 | 0.0 | 6.4 | 0.00 | 0.00 | 0.00 | 46 | 1010.8 |
| 20260902051650 | 31 | 158 | 1.6 | 6.4 | 0.00 | 0.00 | 0.00 | 46 | 1011.1 |
| 20260902051149 | 31 | 203 | 0.0 | 4.8 | 0.00 | 0.00 | 0.00 | 48 | 1011.1 |
| 20260902050650 | 31 | 180 | 0.0 | 0.0 | 0.00 | 0.00 | 0.00 | 49 | 1011.1 |
| 20260902050149 | 31 | 180 | 0.0 | 0.0 | 0.00 | 0.00 | 0.00 | 50 | 1010.8 |
| 20260902045653 | 31 | 203 | 0.0 | 0.0 | 0.00 | 0.00 | 0.00 | 50 | 1011.1 |
| 20260902045649 | 31 | 180 | 0.0 | 0.0 | 0.00 | 0.00 | 0.00 | 50 | 1010.8 |
| 20260902044922 | 31 | 180 | 0.0 | 0.0 | 0.00 | 0.00 | 0.00 | 50 | 1010.8 |
| 20260902044151 | 31 | 203 | 0.0 | 0.0 | 0.00 | 0.00 | 0.00 | 49 | 1010.8 |
| 20260902043921 | 31 | 203 | 0.0 | 0.0 | 0.00 | 0.00 | 0.00 | 50 | 1010.8 |
| 20260902043152 | 31 | 203 | 0.0 | 0.0 | 0.00 | 0.00 | 0.00 | 46 | 1010.8 |
| 20260902042649 | 32 | 203 | 0.0 | 0.0 | 0.00 | 0.00 | 0.00 | 50 | 1010.8 |
| 20260902042149 | 32 | 203 | 0.0 | 0.0 | 0.00 | 0.00 | 0.00 | 49 | 1010.8 |
| 20260902041649 | 32 | 203 | 0.0 | 0.0 | 0.00 | 0.00 | 0.00 | 49 | 1010.8 |
| 20260902041149 | 32 | 203 | 0.0 | 0.0 | 0.00 | 0.00 | 0.00 | 49 | 1010.8 |
| 20260902040650 | 32 | 180 | 0.0 | 0.0 | 0.00 | 0.00 | 0.00 | 50 | 1010.8 |
| 20260902040422 | 32 | 45 | 0.0 | 0.0 | 0.00 | 0.00 | 0.00 | 48 | 1010.5 |
| 20260902035651 | 32 | 23 | 0.0 | 0.0 | 0.00 | 0.00 | 0.00 | 50 | 1010.8 |
| 20260902035150 | 32 | 23 | 0.0 | 0.0 | 0.00 | 0.00 | 0.00 | 49 | 1010.5 |
| 20260902034651 | 32 | 45 | 0.0 | 0.0 | 0.00 | 0.00 | 0.00 | 48 | 1010.5 |
| 20260902034149 | 32 | 45 | 0.0 | 0.0 | 0.00 | 0.00 | 0.00 | 46 | 1010.0 |
| 20260902033650 | 32 | 270 | 0.0 | 0.0 | 0.00 | 0.00 | 0.00 | 48 | 1010.0 |
| 20260902033149 | 32 | 270 | 0.0 | 0.0 | 0.00 | 0.00 | 0.00 | 46 | 1009.7 |
| 20260902032649 | 32 | 293 | 0.0 | 0.0 | 0.00 | 0.00 | 0.00 | 46 | 1009.7 |
| 20260902032150 | 32 | 270 | 0.0 | 0.0 | 0.00 | 0.00 | 0.00 | 46 | 1009.7 |
| 20260902031650 | 32 | 270 | 0.0 | 0.0 | 0.00 | 0.00 | 0.00 | 45 | 1009.3 |
| 20260902031150 | 32 | 270 | 0.0 | 0.0 | 0.00 | 0.00 | 0.00 | 45 | 1009.3 |
| 20260902030651 | 33 | 248 | 0.0 | 0.0 | 0.00 | 0.00 | 0.00 | 46 | 1009.3 |
| 20260902030150 | 33 | 203 | 0.0 | 0.0 | 0.00 | 0.00 | 0.00 | 45 | 1009.3 |
| 20260902025649 | 33 | 203 | 0.0 | 0.0 | 0.00 | 0.00 | 0.00 | 45 | 1009.0 |
| 20260902025149 | 33 | 203 | 0.0 | 0.0 | 0.00 | 0.00 | 0.00 | 45 | 1009.0 |
| 20260902024649 | 33 | 203 | 0.0 | 0.0 | 0.00 | 0.00 | 0.00 | 45 | 1009.3 |
| 20260902024149 | 33 | 203 | 0.0 | 0.0 | 0.00 | 0.00 | 0.00 | 44 | 1009.0 |
| 20260902023921 | 33 | 203 | 0.0 | 0.0 | 0.00 | 0.00 | 0.00 | 45 | 1009.3 |
| 20260902023151 | 33 | 180 | 0.0 | 0.0 | 0.00 | 0.00 | 0.00 | 45 | 1009.0 |
| 20260902022650 | 33 | 180 | 0.0 | 0.0 | 0.00 | 0.00 | 0.00 | 44 | 1009.0 |
| 20260902022151 | 33 | 270 | 0.0 | 0.0 | 0.00 | 0.00 | 0.00 | 44 | 1009.0 |
| 20260902021650 | 33 | 158 | 0.0 | 0.0 | 0.00 | 0.00 | 0.00 | 44 | 1009.0 |
| 20260902021149 | 34 | 225 | 0.0 | 0.0 | 0.00 | 0.00 | 0.00 | 43 | 1009.0 |
| 20260902020648 | 34 | 180 | 0.0 | 0.0 | 0.00 | 0.00 | 0.00 | 40 | 1009.0 |
| 20260902020149 | 34 | 248 | 0.0 | 0.0 | 0.00 | 0.00 | 0.00 | 40 | 1009.0 |
| 20260902015653 | 34 | 23 | 0.0 | 0.0 | 0.00 | 0.00 | 0.00 | 39 | 1008.7 |
| 20260902015649 | 34 | 68 | 0.0 | 0.0 | 0.00 | 0.00 | 0.00 | 39 | 1008.7 |
| 20260902014650 | 35 | 158 | 0.0 | 0.0 | 0.00 | 0.00 | 0.00 | 39 | 1008.7 |
| 20260902014150 | 35 | 270 | 0.0 | 0.0 | 0.00 | 0.00 | 0.00 | 40 | 1008.7 |
| 20260902013650 | 35 | 270 | 0.0 | 0.0 | 0.00 | 0.00 | 0.00 | 40 | 1008.7 |
| 20260902013421 | 35 | 270 | 0.0 | 0.0 | 0.00 | 0.00 | 0.00 | 35 | 1008.7 |
| 20260902012654 | 35 | 68 | 0.0 | 1.6 | 0.00 | 0.00 | 0.00 | 35 | 1008.7 |
| 20260902012650 | 35 | 180 | 0.0 | 0.0 | 0.00 | 0.00 | 0.00 | 37 | 1008.7 |
| 20260902011649 | 35 | 23 | 0.0 | 4.8 | 0.00 | 0.00 | 0.00 | 35 | 1008.7 |
| 20260902011149 | 35 | 180 | 0.0 | 4.8 | 0.00 | 0.00 | 0.00 | 35 | 1008.7 |
| 20260902010653 | 36 | 293 | 0.0 | 6.4 | 0.00 | 0.00 | 0.00 | 35 | 1008.7 |
| 20260902010649 | 35 | 248 | 0.0 | 4.8 | 0.00 | 0.00 | 0.00 | 35 | 1009.0 |
| 20260902005650 | 36 | 225 | 1.6 | 6.4 | 0.00 | 0.00 | 0.00 | 34 | 1009.0 |
| 20260902005150 | 36 | 225 | 0.0 | 3.2 | 0.00 | 0.00 | 0.00 | 35 | 1009.0 |
| 20260902004651 | 36 | 270 | 0.0 | 4.8 | 0.00 | 0.00 | 0.00 | 35 | 1009.0 |
| 20260902004150 | 36 | 203 | 0.0 | 4.8 | 0.00 | 0.00 | 0.00 | 34 | 1009.0 |
| 20260902003649 | 36 | 315 | 0.0 | 8.0 | 0.00 | 0.00 | 0.00 | 37 | 1008.7 |
| 20260902003149 | 36 | 158 | 1.6 | 8.0 | 0.00 | 0.00 | 0.00 | 35 | 1009.3 |
| 20260902002920 | 36 | 180 | 1.6 | 8.0 | 0.00 | 0.00 | 0.00 | 35 | 1009.0 |
| 20260902002149 | 36 | 203 | 0.0 | 4.8 | 0.00 | 0.00 | 0.00 | 35 | 1009.3 |
| 20260902001650 | 36 | 180 | 0.0 | 8.0 | 0.00 | 0.00 | 0.00 | 35 | 1009.3 |
| 20260902001150 | 36 | 135 | 1.6 | 8.0 | 0.00 | 0.00 | 0.00 | 35 | 1009.3 |
| 20260902000921 | 36 | 158 | 0.0 | 6.4 | 0.00 | 0.00 | 0.00 | 37 | 1009.3 |
| 20260902000151 | 36 | 248 | 1.6 | 8.0 | 0.00 | 0.00 | 0.00 | 37 | 1009.3 |
| 20260901235650 | 36 | 270 | 1.6 | 8.0 | 0.00 | 0.00 | 0.00 | 35 | 1009.3 |
| 20260901235420 | 37 | 68 | 0.0 | 9.7 | 0.00 | 0.00 | 0.00 | 35 | 1009.3 |
| 20260901235410 | 37 | 158 | 1.6 | 9.7 | 0.00 | 0.00 | 0.00 | 35 | 1009.7 |
| 20260901234149 | 37 | 225 | 1.6 | 12.9 | 0.00 | 0.00 | 0.00 | 35 | 1009.3 |
| 20260901233648 | 37 | 225 | 3.2 | 12.9 | 0.00 | 0.00 | 0.00 | 35 | 1009.3 |
| 20260901233150 | 37 | 315 | 1.6 | 9.7 | 0.00 | 0.00 | 0.00 | 35 | 1009.3 |
| 20260901232631 | 37 | 225 | 3.2 | 9.7 | 0.00 | 0.00 | 0.00 | 35 | 1009.7 |
| 20260901232131 | 37 | 135 | 1.6 | 9.7 | 0.00 | 0.00 | 0.00 | 37 | 1009.3 |
| 20260901231631 | 37 | 180 | 3.2 | 9.7 | 0.00 | 0.00 | 0.00 | 35 | 1009.7 |
| 20260901231131 | 37 | 113 | 1.6 | 8.0 | 0.00 | 0.00 | 0.00 | 37 | 1009.7 |
| 20260901230629 | 37 | 203 | 1.6 | 11.3 | 0.00 | 0.00 | 0.00 | 35 | 1009.3 |
| 20260901230130 | 37 | 270 | 3.2 | 11.3 | 0.00 | 0.00 | 0.00 | 35 | 1010.0 |
| 20260901225629 | 37 | 180 | 1.6 | 9.7 | 0.00 | 0.00 | 0.00 | 35 | 1009.7 |
| 20260901225129 | 37 | 180 | 0.0 | 4.8 | 0.00 | 0.00 | 0.00 | 37 | 1010.0 |
| 20260901224630 | 37 | 203 | 0.0 | 14.5 | 0.00 | 0.00 | 0.00 | 37 | 1010.0 |
| 20260901224402 | 37 | 158 | 3.2 | 14.5 | 0.00 | 0.00 | 0.00 | 37 | 1009.7 |
| 20260901223630 | 37 | 203 | 3.2 | 11.3 | 0.00 | 0.00 | 0.00 | 37 | 1010.0 |
| 20260901223130 | 37 | 180 | 1.6 | 11.3 | 0.00 | 0.00 | 0.00 | 37 | 1009.7 |
| 20260901222631 | 37 | 270 | 0.0 | 6.4 | 0.00 | 0.00 | 0.00 | 37 | 1010.0 |
| 20260901222129 | 37 | 45 | 0.0 | 6.4 | 0.00 | 0.00 | 0.00 | 37 | 1010.0 |
| 20260901221630 | 37 | 113 | 1.6 | 11.3 | 0.00 | 0.00 | 0.00 | 37 | 1010.5 |
| 20260901221401 | 37 | 180 | 1.6 | 11.3 | 0.00 | 0.00 | 0.00 | 37 | 1010.5 |
| 20260901220629 | 37 | 203 | 1.6 | 9.7 | 0.00 | 0.00 | 0.00 | 37 | 1010.5 |
| 20260901220129 | 37 | 158 | 1.6 | 8.0 | 0.00 | 0.00 | 0.00 | 37 | 1010.5 |
| 20260901215901 | 37 | 315 | 1.6 | 8.0 | 0.00 | 0.00 | 0.00 | 37 | 1010.5 |
| 20260901215130 | 37 | 180 | 1.6 | 11.3 | 0.00 | 0.00 | 0.00 | 37 | 1010.5 |
| 20260901214906 | 37 | 158 | 1.6 | 9.7 | 0.00 | 0.00 | 0.00 | 37 | 1010.5 |
| 20260901214630 | 37 | 158 | 3.2 | 11.3 | 0.00 | 0.00 | 0.00 | 37 | 1010.5 |
| 20260901213631 | 37 | 180 | 1.6 | 8.0 | 0.00 | 0.00 | 0.00 | 37 | 1010.8 |
| 20260901213401 | 37 | 113 | 0.0 | 9.7 | 0.00 | 0.00 | 0.00 | 40 | 1010.8 |
| 20260901212629 | 36 | 293 | 1.6 | 11.3 | 0.00 | 0.00 | 0.00 | 40 | 1011.1 |
| 20260901212129 | 36 | 270 | 1.6 | 11.3 | 0.00 | 0.00 | 0.00 | 40 | 1011.1 |
| 20260901211629 | 36 | 270 | 1.6 | 11.3 | 0.00 | 0.00 | 0.00 | 40 | 1011.5 |
| 20260901211131 | 36 | 180 | 3.2 | 11.3 | 0.00 | 0.00 | 0.00 | 40 | 1011.5 |
| 20260901210631 | 36 | 180 | 0.0 | 4.8 | 0.00 | 0.00 | 0.00 | 40 | 1011.5 |
| 20260901210134 | 36 | 338 | 1.6 | 11.3 | 0.00 | 0.00 | 0.00 | 41 | 1011.8 |
| 20260901210130 | 36 | 225 | 0.0 | 6.4 | 0.00 | 0.00 | 0.00 | 40 | 1011.5 |
| 20260901205130 | 36 | 135 | 3.2 | 11.3 | 0.00 | 0.00 | 0.00 | 41 | 1011.8 |
| 20260901204901 | 35 | 248 | 1.6 | 9.7 | 0.00 | 0.00 | 0.00 | 40 | 1011.8 |